EZY38VV EGGD-EHAM

Flight info

Callsign EZY38VV
Flight time 0h 53m
Altitude 29000
Route YORQI L607 ALHAD P72 IPRIL M197 REDFA
Aircraft A320/M-SDE2E3FGHIJ1RWXYZ/LB1

Departure

Time 2026-05-04 15:48
Airport Bristol Airport (EGGD)

Arrival

Time 2026-05-04 16:42
Airport Amsterdam Airport Schiphol (EHAM)
Time Latitude Longitude Altitude Speed Heading
2026-05-04 14:59 51.38532 -2.71350 618 ft 0 kts 356°
2026-05-04 15:00 51.38531 -2.71350 615 ft 0 kts 356°
2026-05-04 15:40 51.38523 -2.71349 626 ft 3 kts 356°
2026-05-04 15:40 51.38501 -2.71347 619 ft 3 kts 356°
2026-05-04 15:40 51.38481 -2.71345 621 ft 1 kts 357°
2026-05-04 15:41 51.38463 -2.71341 622 ft 3 kts 324°
2026-05-04 15:41 51.38452 -2.71318 629 ft 3 kts 273°
2026-05-04 15:41 51.38452 -2.71293 627 ft 0 kts 266°
2026-05-04 15:44 51.38452 -2.71296 628 ft 2 kts 266°
2026-05-04 15:44 51.38448 -2.71394 613 ft 14 kts 266°
2026-05-04 15:44 51.38442 -2.71560 619 ft 16 kts 266°
2026-05-04 15:44 51.38435 -2.71744 606 ft 16 kts 266°
2026-05-04 15:45 51.38432 -2.71950 606 ft 21 kts 270°
2026-05-04 15:45 51.38427 -2.72176 613 ft 19 kts 266°
2026-05-04 15:45 51.38420 -2.72368 611 ft 19 kts 266°
2026-05-04 15:45 51.38411 -2.72612 610 ft 24 kts 266°
2026-05-04 15:46 51.38399 -2.72889 606 ft 27 kts 266°
2026-05-04 15:46 51.38391 -2.73098 606 ft 16 kts 266°
2026-05-04 15:46 51.38384 -2.73238 611 ft 10 kts 258°
2026-05-04 15:46 51.38337 -2.73331 618 ft 12 kts 207°
2026-05-04 15:47 51.38280 -2.73340 619 ft 7 kts 169°
2026-05-04 15:47 51.38223 -2.73317 632 ft 3 kts 153°
2026-05-04 15:47 51.38218 -2.73301 630 ft 2 kts 101°
2026-05-04 15:47 51.38217 -2.73293 629 ft 2 kts 101°
2026-05-04 15:48 51.38220 -2.73136 631 ft 27 kts 86°
2026-05-04 15:48 51.38244 -2.72520 630 ft 91 kts 87°
2026-05-04 15:48 51.38374 -2.69509 1351 ft 147 kts 83°
2026-05-04 15:49 51.38429 -2.67816 1963 ft 162 kts 83°
2026-05-04 15:49 51.38488 -2.65902 2365 ft 183 kts 85°
2026-05-04 15:49 51.38551 -2.63739 2685 ft 208 kts 86°
2026-05-04 15:49 51.38617 -2.61505 3080 ft 230 kts 86°
2026-05-04 15:50 51.38696 -2.58852 3591 ft 252 kts 87°
2026-05-04 15:50 51.39038 -2.56134 4334 ft 262 kts 63°
2026-05-04 15:50 51.40286 -2.53983 5200 ft 270 kts 35°
2026-05-04 15:50 51.41827 -2.52429 6060 ft 275 kts 31°
2026-05-04 15:51 51.43283 -2.51121 6846 ft 278 kts 30°
2026-05-04 15:51 51.44992 -2.49642 7714 ft 282 kts 30°
2026-05-04 15:51 51.46701 -2.48038 8545 ft 287 kts 37°
2026-05-04 15:51 51.48107 -2.45704 9090 ft 302 kts 60°
2026-05-04 15:52 51.48775 -2.42688 9434 ft 317 kts 85°
2026-05-04 15:52 51.48970 -2.39113 10125 ft 325 kts 86°
2026-05-04 15:52 51.49150 -2.35948 10808 ft 328 kts 86°
2026-05-04 15:52 51.49376 -2.32285 11601 ft 332 kts 85°
2026-05-04 15:53 51.49587 -2.28917 12285 ft 336 kts 86°
2026-05-04 15:53 51.49813 -2.25161 13049 ft 341 kts 86°
2026-05-04 15:53 51.50047 -2.21353 13799 ft 345 kts 86°
2026-05-04 15:53 51.50278 -2.17497 14458 ft 349 kts 88°
2026-05-04 15:54 51.50208 -2.13603 15127 ft 350 kts 98°
2026-05-04 15:54 51.49944 -2.09986 15757 ft 352 kts 98°
2026-05-04 15:54 51.49660 -2.06061 16437 ft 355 kts 98°
2026-05-04 15:54 51.49377 -2.02110 17114 ft 358 kts 98°
2026-05-04 15:55 51.49111 -1.98399 17750 ft 361 kts 98°
2026-05-04 15:55 51.48839 -1.94579 18382 ft 363 kts 98°
2026-05-04 15:55 51.48554 -1.90595 18934 ft 366 kts 98°
2026-05-04 15:55 51.48358 -1.87861 19301 ft 369 kts 98°
2026-05-04 15:56 51.48062 -1.83747 19874 ft 373 kts 98°
2026-05-04 15:56 51.47772 -1.79785 20389 ft 376 kts 99°
2026-05-04 15:56 51.47463 -1.75597 20938 ft 380 kts 99°
2026-05-04 15:56 51.47151 -1.71365 21466 ft 383 kts 99°
2026-05-04 15:57 51.46854 -1.67566 21923 ft 386 kts 102°
2026-05-04 15:57 51.46441 -1.64330 22300 ft 388 kts 104°
2026-05-04 15:57 51.45867 -1.60080 22817 ft 391 kts 104°
2026-05-04 15:57 51.45329 -1.56151 23270 ft 394 kts 105°
2026-05-04 15:58 51.44719 -1.51704 23748 ft 398 kts 105°
2026-05-04 15:58 51.44123 -1.47353 24173 ft 401 kts 105°
2026-05-04 15:58 51.43570 -1.43324 24565 ft 403 kts 105°
2026-05-04 15:58 51.43188 -1.40522 24823 ft 405 kts 105°
2026-05-04 15:59 51.42586 -1.36122 25231 ft 408 kts 105°
2026-05-04 15:59 51.42021 -1.32014 25857 ft 399 kts 105°
2026-05-04 15:59 51.41474 -1.28051 27037 ft 380 kts 106°
2026-05-04 15:59 51.40928 -1.24096 28039 ft 368 kts 107°
2026-05-04 16:00 51.40528 -1.20042 28165 ft 382 kts 98°
2026-05-04 16:00 51.40490 -1.16949 28265 ft 392 kts 90°
2026-05-04 16:00 51.40852 -1.12543 28407 ft 406 kts 80°
2026-05-04 16:00 51.41723 -1.08177 28554 ft 419 kts 69°
2026-05-04 16:01 51.42987 -1.03990 28688 ft 429 kts 66°
2026-05-04 16:01 51.44326 -0.99649 28841 ft 437 kts 66°
2026-05-04 16:01 51.45568 -0.95594 28963 ft 442 kts 66°
2026-05-04 16:01 51.46914 -0.91187 29019 ft 434 kts 66°
2026-05-04 16:02 51.48209 -0.86949 29022 ft 419 kts 66°
2026-05-04 16:02 51.49476 -0.82789 29025 ft 413 kts 66°
2026-05-04 16:03 51.53026 -0.71017 29028 ft 410 kts 67°
2026-05-04 16:03 51.55508 -0.62742 29029 ft 415 kts 66°
2026-05-04 16:04 51.58014 -0.54390 29028 ft 417 kts 66°
2026-05-04 16:04 51.61705 -0.42041 29028 ft 416 kts 66°
2026-05-04 16:05 51.64209 -0.33650 29082 ft 415 kts 66°
2026-05-04 16:06 51.67722 -0.21103 29048 ft 412 kts 76°
2026-05-04 16:07 51.70558 -0.04094 29036 ft 411 kts 79°
2026-05-04 16:08 51.73178 0.13030 29026 ft 411 kts 78°
2026-05-04 16:09 51.76606 0.35346 29033 ft 410 kts 78°
2026-05-04 16:10 51.79307 0.53171 29012 ft 410 kts 78°
2026-05-04 16:11 51.82004 0.71078 28997 ft 410 kts 78°
2026-05-04 16:12 51.86249 0.96169 29004 ft 411 kts 75°
2026-05-04 16:13 51.89542 1.13888 28997 ft 411 kts 75°
2026-05-04 16:14 51.92686 1.31603 29005 ft 411 kts 76°
2026-05-04 16:16 51.96369 1.52316 28999 ft 410 kts 76°
2026-05-04 16:16 51.98917 1.66907 28519 ft 400 kts 76°
2026-05-04 16:17 52.00354 1.75560 27972 ft 395 kts 78°
2026-05-04 16:18 52.02103 1.87014 27257 ft 391 kts 78°
2026-05-04 16:18 52.02749 1.91287 26995 ft 389 kts 78°
2026-05-04 16:19 52.04697 2.04050 26205 ft 388 kts 77°
2026-05-04 16:19 52.05997 2.12525 25708 ft 385 kts 77°
2026-05-04 16:20 52.07909 2.25080 24967 ft 381 kts 77°
2026-05-04 16:20 52.09168 2.33411 24488 ft 379 kts 77°
2026-05-04 16:21 52.11019 2.45768 23324 ft 372 kts 76°
2026-05-04 16:22 52.13136 2.53359 22566 ft 368 kts 59°
2026-05-04 16:22 52.16989 2.64000 21594 ft 362 kts 59°
2026-05-04 16:23 52.20777 2.74504 20623 ft 355 kts 59°
2026-05-04 16:24 52.25707 2.88221 19377 ft 348 kts 59°
2026-05-04 16:25 52.28135 2.95007 18757 ft 344 kts 59°
2026-05-04 16:26 52.32892 3.08386 17498 ft 337 kts 59°
2026-05-04 16:26 52.36391 3.18231 16616 ft 332 kts 59°
2026-05-04 16:27 52.38682 3.24704 16030 ft 329 kts 59°
2026-05-04 16:28 52.42086 3.34385 15150 ft 325 kts 59°
2026-05-04 16:28 52.45101 3.44202 14272 ft 321 kts 76°
2026-05-04 16:29 52.46345 3.58393 13140 ft 315 kts 107°
2026-05-04 16:30 52.44021 3.68407 12354 ft 312 kts 112°
2026-05-04 16:31 52.42453 3.74971 11833 ft 307 kts 112°
2026-05-04 16:31 52.40127 3.84723 11081 ft 304 kts 112°
2026-05-04 16:32 52.37830 3.94306 10345 ft 298 kts 113°
2026-05-04 16:33 52.36326 4.00545 9885 ft 293 kts 113°
2026-05-04 16:33 52.34841 4.06701 9140 ft 289 kts 113°
2026-05-04 16:34 52.33366 4.12793 8338 ft 287 kts 113°
2026-05-04 16:34 52.32632 4.15822 7914 ft 286 kts 113°
2026-05-04 16:35 52.30460 4.24742 6668 ft 269 kts 113°
2026-05-04 16:35 52.28426 4.33054 5432 ft 263 kts 112°
2026-05-04 16:36 52.27748 4.35820 5009 ft 263 kts 112°
2026-05-04 16:36 52.26194 4.41060 4186 ft 248 kts 128°
2026-05-04 16:37 52.23654 4.44498 3406 ft 230 kts 148°
2026-05-04 16:37 52.22454 4.46120 3280 ft 220 kts 130°
2026-05-04 16:37 52.21254 4.50395 3083 ft 203 kts 96°
2026-05-04 16:38 52.21636 4.54748 2688 ft 191 kts 64°
2026-05-04 16:39 52.23586 4.59924 1964 ft 162 kts 55°
2026-05-04 16:39 52.24724 4.62870 1540 ft 147 kts 54°
2026-05-04 16:40 52.25792 4.65648 1108 ft 142 kts 53°
2026-05-04 16:40 52.26840 4.68329 799 ft 139 kts 53°
2026-05-04 16:41 52.27858 4.70986 444 ft 137 kts 54°
2026-05-04 16:41 52.29335 4.74816 -1 ft 110 kts 58°
2026-05-04 16:42 52.29858 4.75868 -2 ft 24 kts 28°
2026-05-04 16:43 52.30098 4.76269 -1 ft 32 kts 58°
2026-05-04 16:43 52.30331 4.76873 -1 ft 29 kts 58°
2026-05-04 16:43 52.30433 4.77139 -1 ft 27 kts 58°
2026-05-04 16:44 52.30807 4.77465 -1 ft 17 kts
2026-05-04 16:45 52.31072 4.77490 -1 ft 21 kts
2026-05-04 16:46 52.31429 4.77250 -1 ft 18 kts 309°
2026-05-04 16:46 52.31478 4.76881 -1 ft 17 kts 267°
2026-05-04 16:47 52.31468 4.76464 -1 ft 19 kts 260°
2026-05-04 16:47 52.31447 4.75995 -1 ft 22 kts 265°
2026-05-04 16:48 52.31404 4.75448 -1 ft 9 kts 211°
2026-05-04 16:48 52.31346 4.75449 -1 ft 8 kts 176°
2026-05-04 16:49 52.31226 4.75459 -1 ft 8 kts 176°
2026-05-04 16:49 52.31119 4.75447 -1 ft 7 kts 180°
2026-05-04 16:50 52.31056 4.75508 -1 ft 2 kts 148°
2026-05-04 16:50 52.31045 4.75518 -1 ft 0 kts 148°
2026-05-04 16:53 52.31046 4.75518 -1 ft 0 kts 148°